User: anonymous   Login
Location: ?
(35.4996°N, 139.3166°E)
Time: 02:14:19
(UTC+00:00)
Language:

Cosmos 1331 Rocket - Orbit

View from above orbital plane
View from above orbital plane
View from above satellite
View from above satellite

Ground track
Ground track

The orbit data is extracted from the following two-line orbital elements,

1 13028U 82001B   24167.60003241  .00000469  00000-0  15989-3 0  9995
2 13028  74.0417 359.8926 0019540 172.6891 187.4553 14.39124272224314
Epoch (UTC): 15 June 2024 14:24:02
Eccentricity: 0.0019540
inclination: 74.0417°
perigee height: 747 km
apogee height: 775 km
right ascension of ascending node: 359.8926°
argument of perigee: 172.6891°
revolutions per day: 14.39124272
mean anomaly at epoch: 187.4553°
orbit number at epoch: 22431

The dashed part of the orbit path shows where the satellite is in the earth's shadow,  

DLR